FREGAT DEB

Last updated on Wed Sep 09 2026 00:02:05 GMT+0000 (Coordinated Universal Time)

1 49271U 11037PF 26251.35284266 .00019470 00000+0 27878-1 0 9990 2 49271 51.6419 111.4636 0938145 106.9076 263.6680 12.44231061235399
UTC large
Height (km)
Speed (km/s)
/
Latitude / Longitude
Inclination (degrees)
Orbital Period (minutes)
Azimuth
Elevation
Range (km)
Doppler Factor

Next 0 passes for location: London (51.5072 / 0.1276)

No passes found over London.
FREGAT DEB